Weather History for Kansas City, MO

Change the Weather History Date:

Tuesday, March 19, 2013

  Actual Average Record
Temperature  
Mean Temperature 38 °F -  
Max Temperature 42 °F 54 °F 75 °F (2012)
Min Temperature 34 °F 34 °F 30 °F (2005)
Degree Days  
Heating Degree Days 28    
Moisture  
Dew Point 24 °F    
Average Humidity 63    
Maximum Humidity 87    
Minimum Humidity 28    
Precipitation  
Precipitation 0.00 in - - ()
Sea Level Pressure  
Sea Level Pressure 30.21 in    
Wind  
Wind Speed 3 mph (WSW)    
Max Wind Speed 12 mph    
Max Gust Speed -    
Visibility 10 miles    
Events      
Averages and records for this station are not official NWS values.
T = Trace of Precipitation, MM = Missing Value Source: NWS Daily Summary

Daily Weather History Graph

Daily Weather History Graph

Search for Another Location

Airport:

Trip Planner

Search our weather history database for the weather conditions in past years. The results will help you decide how hot, cold, wet, or windy it might be!

Date:

Astronomy

Mar. 19, 2013 Rise Set
Actual Time 7:22 AM CDT 7:29 PM CDT
Civil Twilight 6:56 AM CDT 7:56 PM CDT
Nautical Twilight 6:25 AM CDT 8:27 PM CDT
Astronomical Twilight 5:53 AM CDT 8:59 PM CDT
Moon 12:16 PM CDT (3/19) 2:14 AM CDT (3/19)
Length of Visible Light 13h 00m
Length of Day
12h 06m
Waxing Crescent, 50% of the Moon is Illuminated
Mar 19
Waxing Crescent
Mar 19
First Quarter
Mar 27
Full
Apr 2
Last Quarter
Apr 10
New

Hourly Weather History & Observations

Time (CDT) Temp. Windchill Dew Point Humidity Pressure Visibility Wind Dir Wind Speed Gust Speed Precip Events Conditions
12:54 AM 35.1 °F - 17.1 °F 48% 30.08 in 10.0 mi Calm Calm - N/A   Clear
1:54 AM 34.0 °F 31.0 °F 15.1 °F 46% 30.10 in 10.0 mi SW 3.5 mph - N/A   Clear
2:54 AM 34.0 °F 31.0 °F 16.0 °F 48% 30.10 in 10.0 mi WSW 3.5 mph - N/A   Partly Cloudy
3:54 AM 35.1 °F 32.2 °F 14.0 °F 42% 30.11 in 10.0 mi West 3.5 mph - N/A   Overcast
4:54 AM 35.1 °F 32.2 °F 15.1 °F 44% 30.10 in 10.0 mi Variable 3.5 mph - N/A   Overcast
5:54 AM 35.1 °F - 15.1 °F 44% 30.14 in 10.0 mi Calm Calm - N/A   Overcast
6:54 AM 34.0 °F 29.8 °F 17.1 °F 50% 30.14 in 10.0 mi SW 4.6 mph - N/A   Overcast
7:54 AM 35.1 °F 31.0 °F 17.1 °F 48% 30.17 in 10.0 mi SW 4.6 mph - N/A   Overcast
8:54 AM 36.0 °F - 17.1 °F 46% 30.19 in 10.0 mi Calm Calm - N/A   Overcast
9:54 AM 37.0 °F - 14.0 °F 39% 30.21 in 10.0 mi Calm Calm - N/A   Overcast
10:54 AM 39.0 °F - 12.9 °F 34% 30.24 in 10.0 mi Calm Calm - N/A   Overcast
11:54 AM 39.9 °F - 10.0 °F 29% 30.25 in 10.0 mi Calm Calm - N/A   Overcast
12:54 PM 41.0 °F 37.1 °F 10.0 °F 28% 30.25 in 10.0 mi WSW 5.8 mph - N/A   Overcast
1:54 PM 39.0 °F 33.4 °F 25.0 °F 57% 30.26 in 10.0 mi SW 8.1 mph - N/A   Overcast
2:54 PM 39.0 °F 31.8 °F 28.9 °F 67% 30.26 in 10.0 mi WSW 11.5 mph - N/A   Mostly Cloudy
3:54 PM 37.0 °F 32.4 °F 30.9 °F 79% 30.25 in 10.0 mi West 5.8 mph - 0.00 in   Overcast
4:12 PM 37.4 °F 32.8 °F 30.2 °F 75% 30.23 in 10.0 mi WSW 5.8 mph - N/A   Overcast
4:38 PM 37.4 °F 32.1 °F 32.0 °F 81% 30.23 in 10.0 mi SW 6.9 mph - 0.00 in   Overcast
4:54 PM 37.9 °F 31.5 °F 32.0 °F 79% 30.24 in 10.0 mi SW 9.2 mph - 0.00 in   Overcast
5:47 PM 39.2 °F 33.6 °F 32.0 °F 75% 30.22 in 10.0 mi SW 8.1 mph - N/A   Overcast
5:54 PM 39.0 °F 34.0 °F 32.0 °F 76% 30.23 in 10.0 mi WSW 6.9 mph - N/A   Mostly Cloudy
6:41 PM 39.2 °F 35.9 °F 33.8 °F 81% 30.21 in 10.0 mi WNW 4.6 mph - N/A   Scattered Clouds
6:54 PM 39.0 °F 35.7 °F 32.0 °F 76% 30.22 in 10.0 mi West 4.6 mph - N/A   Clear
7:28 PM 37.4 °F 33.8 °F 32.0 °F 81% 30.23 in 10.0 mi West 4.6 mph - N/A   Mostly Cloudy
7:54 PM 37.9 °F - 32.0 °F 79% 30.24 in 10.0 mi Calm Calm - N/A   Mostly Cloudy
8:33 PM 37.4 °F - 32.0 °F 81% 30.23 in 10.0 mi Calm Calm - N/A   Partly Cloudy
8:54 PM 37.0 °F - 32.0 °F 82% 30.25 in 10.0 mi Calm Calm - N/A   Mostly Cloudy
9:54 PM 37.9 °F 33.5 °F 33.1 °F 83% 30.26 in 8.0 mi SW 5.8 mph - N/A   Mostly Cloudy
10:12 PM 35.6 °F 29.9 °F 32.0 °F 87% 30.24 in 7.0 mi SSW 6.9 mph - N/A   Scattered Clouds
10:54 PM 36.0 °F 32.1 °F 32.0 °F 86% 30.26 in 6.0 mi SSW 4.6 mph - N/A   Clear
11:54 PM 36.0 °F 31.1 °F 32.0 °F 86% 30.25 in 7.0 mi SW 5.8 mph - N/A   Clear